Regional Weather Roundup
Issued by NWS Charleston, SC

Current Version | Previous Version | Graphics & Text | Print | Product List | Glossary On
Versions: 1 2 3 4 5 6 7 8 9 10 11 12 13 14 15 16 17 18 19 20 21 22 23 24 25 26 27 28 29 30 31 32 33 34 35 36 37 38 39 40 41 42 43 44 45 46 47 48 49 50
090
ASUS42 KCHS 232127
RWRCHS

REGIONAL WEATHER ROUNDUP
NATIONAL WEATHER SERVICE CHARLESTON SC
500 PM EDT THU MAR 23 2017

NOTE: "FAIR" INDICATES FEW OR NO CLOUDS BELOW 12,000 FEET WITH NO
SIGNIFICANT WEATHER AND/OR OBSTRUCTIONS TO VISIBILITY.

NOT ALL STATIONS ARE QUALITY CONTROLLED. USE DATA WITH CAUTION...
ESPECIALLY DEWPOINT OBSERVATIONS.

SCZ027-030-031-034>040-042>050-232200-
...SOUTHEAST SOUTH CAROLINA...

CITY           SKY/WX    TMP DP  RH WIND       PRES   REMARKS
N CHARLESTON   SUNNY     64  33  31 E9        30.46F
WATERFRONT PRK   N/A     58  47  66 E20       30.47F
JOHNS ISLAND   FAIR      59  46  63 E21       30.48R
PINOPOLIS        N/A     61  37  41 E7        30.38F
MONCKS CORNER  CLOUDY    61  32  33 E8        30.47S
SUMMERVILLE    FAIR      63  34  34 NE8       30.47S
BEAUFORT MCAS  SUNNY     65  42  43 E13G21    30.45S
BEAUFORT ARPT  FAIR      61  46  59 E13       30.45S
HILTON HEAD IS SUNNY     59  48  67 NE15G31   30.47R
WALTERBORO     CLEAR     64  34  32 E10       30.45F
ALLENDALE      FAIR      66  36  32 VRB7G14   30.42F

...SOUTHERN MIDLANDS AND PEE DEE...

CITY           SKY/WX    TMP DP  RH WIND       PRES   REMARKS
GEORGETOWN     FAIR      55  36  47 E14       30.52S
KINGSTREE      FAIR      61  23  23 NE6       30.48F
ORANGEBURG     SUNNY     62  25  24 SE12      30.46F
BARNWELL       FAIR      66  34  30 E9        30.44S
AIKEN          FAIR      63  30  29 E8        30.47S
MANNING        FAIR      63  30  29 CALM      30.47S
COLUMBIA       MOSUNNY   64  26  23 E5        30.46F
SUMTER         SUNNY     62  23  22 E8        30.46F
FLORENCE       SUNNY     60  24  25 NE6       30.50F
MYRTLE BEACH   SUNNY     54  34  47 E16       30.53S
N MYRTLE BEACH SUNNY     54  30  40 SE10G21   30.52S

$$

GAZ063-065-086>088-099>101-113>116-118-119-134>141-150-232200-
...SOUTHEAST GEORGIA...

CITY           SKY/WX    TMP DP  RH WIND       PRES   REMARKS
SAVANNAH ARPT  MOSUNNY   66  39  37 E14G23    30.44R
HUNTER AAF     SUNNY     64  50  59 E10       30.42S
FORT STEWART   CLOUDY    66  43  42 E15G21    30.41R
STATESBORO     SUNNY     70  45  40 E8        30.41S
SYLVANIA       CLEAR    N/A N/A N/A E6        30.42S
CLAXTON        CLOUDY    67  47  49 E12       30.41S

...CSRA...CENTRAL AND FAR SOUTHEAST GEORGIA...

CITY           SKY/WX    TMP DP  RH WIND       PRES   REMARKS
THOMSON        PTSUNNY   64  33  31 S7        30.47F
AUGUSTA-BUSH   SUNNY     68  34  28 SE8       30.41F
AUGUSTA-DANIEL SUNNY     66  30  26 SE8       30.43F
SWAINSBORO     CLOUDY    68  45  42 SE8       30.41S
VIDALIA        CLOUDY    68  48  49 SE9       30.39F
EASTMAN        CLOUDY    69  35  28 E10G17    30.41S
HAZLEHURST     FAIR      69  52  54 SE7       30.38S
ALMA           CLOUDY    66  50  56 SE13G25   30.38F
WAYCROSS       MOSUNNY   70  54  57 E12G18    30.38F
JESUP          FAIR      68  46  45 E16       30.40F
BAXLEY         CLOUDY    68  54  60 E9        30.39S
BRUNSWICK      CLOUDY    64  55  72 NE21G29   30.42S
SAINT SIMONS   CLOUDY    64  52  64 NE20G30   30.40S

$$

SCZ027-028-034-036>038-045-046-048>050-GAZ119-141-232200-
...LAKE AND SUPPLEMENTAL COASTAL OBSERVATIONS...

STATION/POSITION TIME  TEMP    WIND        PRES    WAVE   SWELL
                       AIR SEA DIR/SP/G            HT/PER HT/PER/DIR
                 (UTC) (F)     (DEG/KT/KT) (MB)    (FT/S) (FT/S/D)
WINYAH BAY       2030   52      70/ 16     1033.0S
LAKE MURRAY      2050   60     100/  5/  7 1030.8F
ACE BASIN NERRS  2030   64      30/  6     1031.0S
FORT PULASKI     2100   57 61   70/ 19/ 24 1031.4
SAPELO ISLAND    2100   63      50/ 15     1030.0

$$

ANZ835-935-AMZ111-154-330-350-352-354-370-450-454-472-232200-
...C-MAN AND BUOY OBSERVATIONS...

STATION/POSITION TIME  TEMP    WIND        PRES    WAVE   SWELL
                       AIR SEA DIR/SP/G            HT/PER HT/PER/DIR
                 (UTC) (F)     (DEG/KT/KT) (MB)    (FT/S) (FT/S/D)
BUOY 41004       2050   60 71   30/ 23/ 29 1030.2R   7/ 6   2/ 80/ 9
BUOY 41008       2050   60 62   50/ 25/ 29 1028.6F   7/ 7   2/100/10
FOLLY BEACH CMAN 2100   55      60/ 23/ 27 1032.6F
CAPERS NEARSHORE 2108   54      60/ 21/ 27 1031.9F
FRIPP NEARSHORE  2108   56 59   60/ 19/ 25 1031.3F


STATION/POSITION TIME  TEMP    WIND        PRES    WAVE   SWELL
                       AIR SEA DIR/SP/G            HT/PER HT/PER/DIR
                 (UTC) (F)     (DEG/KT/KT) (MB)    (FT/S) (FT/S/D)
5E ST. MARYS GA  2100      63                N/A     7/ 7   2/ 80/11
FRYING PAN BUOY  2110   54 65   40/ 19/ 25 1033.2
BUOY 41025       2050   46 74   20/ 16/ 21 1034.8R   9/10   8/ 50/10
CAPE LOOKOUT NC  2100   45      40/ 16/ 19 1034.5S
BUOY 41002       2050   61 72   40/ 17/ 23 1029.6F   8/10   7/ 40/10
BUOY 41010       NOT AVBL
ST AUGUSTINE FL  2100   66 65   80/ 14/ 16 1028.7R


$$




USA.gov is the U.S. government's official web portal to all federal, state and local government web resources and services.